KC5DP Weather Reports


time (UTC)temp
C
wind
direction
speed
KPH
gust
KPH
rain 1hr
cm
rain 24hr
cm
rain mn
cm
humidity
%
barometer
mb
20260510142558 20 84 0.0 0.0 0.00 0.00 0.00 99 1016.1
20260510142055 20 106 0.0 0.0 0.00 0.00 0.00 99 1016.1
20260510141551 20 71 0.0 1.6 0.00 0.00 0.00 99 1016.3
20260510141050 20 103 3.2 3.2 0.00 0.00 0.00 99 1016.3
20260510140545 20 94 0.0 0.0 0.00 0.00 0.00 99 1016.2
20260510140045 20 136 0.0 1.6 0.00 0.00 0.00 99 1016.0
20260510135541 20 49 1.6 3.2 0.00 0.00 0.00 99 1016.0
20260510135037 20 143 3.2 3.2 0.00 0.00 0.00 99 1016.3
20260510134534 19 115 0.0 1.6 0.00 0.00 0.00 99 1016.2
20260510134031 19 108 3.2 3.2 0.00 0.00 0.00 99 1016.0
20260510133527 19 103 0.0 0.0 0.00 0.00 0.00 99 1016.0
20260510133023 19 117 1.6 3.2 0.00 0.00 0.00 99 1015.8
20260510132520 19 83 0.0 0.0 0.00 0.00 0.00 99 1016.0
20260510132017 19 87 0.0 0.0 0.00 0.00 0.00 99 1015.8
20260510131515 19 95 0.0 0.0 0.00 0.00 0.00 99 1015.7
20260510131012 19 96 0.0 0.0 0.00 0.00 0.00 99 1015.7
20260510130508 19 88 0.0 0.0 0.00 0.00 0.00 99 1015.6
20260510130006 18 104 0.0 0.0 0.00 0.00 0.00 99 1015.5
20260510125501 18 78 0.0 1.6 0.00 0.00 0.00 99 1015.4
20260510124959 18 103 0.0 0.0 0.00 0.00 0.00 99 1015.4
20260510124455 18 124 1.6 1.6 0.00 0.00 0.00 99 1015.1
20260510123952 18 112 1.6 1.6 0.00 0.00 0.00 99 1015.1
20260510123447 18 93 0.0 1.6 0.00 0.00 0.00 99 1015.0
20260510122943 18 100 0.0 0.0 0.00 0.00 0.00 99 1014.9
20260510122439 18 111 0.0 0.0 0.00 0.00 0.00 99 1014.8
20260510121935 18 99 0.0 0.0 0.00 0.00 0.00 99 1014.6
20260510121433 18 119 0.0 0.0 0.00 0.00 0.00 99 1014.6
20260510120930 18 62 1.6 1.6 0.00 0.00 0.00 99 1014.8
20260510120427 18 102 0.0 0.0 0.00 0.00 0.00 99 1014.6
20260510115923 18 109 0.0 0.0 0.00 0.00 0.00 99 1014.6
20260510115420 18 98 0.0 0.0 0.00 0.00 0.00 99 1014.5
20260510114915 18 98 0.0 0.0 0.00 0.00 0.00 99 1014.4
20260510114413 18 80 0.0 0.0 0.00 0.00 0.00 99 1014.4
20260510113908 18 95 0.0 0.0 0.00 0.00 0.00 99 1014.3
20260510113404 18 100 0.0 0.0 0.00 0.00 0.00 99 1014.1
20260510112901 18 97 0.0 0.0 0.00 0.00 0.00 99 1013.9
20260510112358 18 99 0.0 0.0 0.00 0.00 0.00 99 1013.7
20260510111854 18 81 0.0 0.0 0.00 0.00 0.00 99 1013.8
20260510111351 18 90 0.0 0.0 0.00 0.00 0.00 99 1013.5
20260510110846 18 81 0.0 0.0 0.00 0.00 0.00 99 1013.5
20260510110343 18 97 0.0 0.0 0.00 0.00 0.00 99 1013.2
20260510105839 18 80 0.0 1.6 0.00 0.00 0.00 99 1013.4
20260510105339 18 103 0.0 0.0 0.00 0.00 0.00 99 1013.3
20260510104835 18 79 1.6 1.6 0.00 0.00 0.00 99 1013.2
20260510104332 18 97 0.0 0.0 0.00 0.00 0.00 99 1012.9
20260510103828 18 115 0.0 0.0 0.00 0.00 0.00 99 1013.0
20260510103326 18 108 0.0 0.0 0.00 0.00 0.00 99 1012.9
20260510102821 18 83 0.0 0.0 0.00 0.00 0.00 99 1012.8
20260510102317 18 95 0.0 0.0 0.00 0.00 0.00 99 1012.8
20260510101815 18 93 0.0 0.0 0.00 0.00 0.00 99 1012.8
20260510101312 18 111 0.0 0.0 0.00 0.00 0.00 99 1012.7
20260510100808 18 78 0.0 0.0 0.00 0.00 0.00 99 1012.4
20260510100306 18 80 0.0 1.6 0.00 0.00 0.00 99 1012.8
20260510095802 18 97 0.0 0.0 0.00 0.00 0.00 99 1012.5
20260510095257 18 101 0.0 0.0 0.00 0.00 0.00 99 1012.4
20260510094756 18 79 0.0 0.0 0.00 0.00 0.00 99 1012.4
20260510094251 18 87 0.0 0.0 0.00 0.00 0.00 99 1012.6
20260510093748 18 79 1.6 3.2 0.00 0.00 0.00 99 1012.4
20260510093245 18 72 1.6 1.6 0.00 0.00 0.00 99 1012.2
20260510092741 18 100 0.0 0.0 0.00 0.00 0.00 99 1012.4
20260510092237 18 70 0.0 0.0 0.00 0.00 0.00 99 1012.2
20260510091733 18 95 0.0 0.0 0.00 0.00 0.00 99 1012.4
20260510091230 18 105 0.0 0.0 0.00 0.00 0.00 99 1012.6
20260510090726 18 107 0.0 0.0 0.00 0.00 0.00 99 1012.6
20260510090224 18 97 0.0 0.0 0.00 0.00 0.00 99 1012.5
20260510085718 18 101 0.0 0.0 0.00 0.00 0.00 99 1012.4
20260510085213 18 98 0.0 0.0 0.00 0.00 0.00 99 1012.4
20260510084710 18 93 0.0 0.0 0.00 0.00 0.00 99 1012.4
20260510084207 18 110 0.0 0.0 0.00 0.00 0.00 99 1012.3
20260510083704 18 112 0.0 0.0 0.00 0.00 0.00 99 1012.3
20260510083201 18 100 0.0 0.0 0.00 0.00 0.00 99 1012.5
20260510082656 18 100 0.0 0.0 0.00 0.00 0.00 99 1012.3
20260510082152 18 104 0.0 0.0 0.00 0.00 0.00 99 1012.3
20260510081647 18 100 0.0 0.0 0.00 0.00 0.00 99 1012.3
20260510081143 18 98 0.0 0.0 0.00 0.00 0.00 99 1012.2
20260510080642 18 98 0.0 0.0 0.00 0.00 0.00 99 1012.4
20260510080140 18 98 0.0 0.0 0.00 0.00 0.00 99 1012.3
20260510075637 18 99 0.0 0.0 0.00 0.00 0.00 99 1012.4
20260510075134 18 100 0.0 0.0 0.00 0.00 0.00 99 1012.3
20260510074631 18 105 0.0 0.0 0.00 0.00 0.00 99 1012.3
20260510074126 18 103 0.0 0.0 0.00 0.00 0.00 99 1012.3
20260510073623 18 107 0.0 0.0 0.00 0.00 0.00 99 1012.2
20260510073120 18 89 0.0 0.0 0.00 0.00 0.00 99 1012.2
20260510072616 18 104 0.0 0.0 0.00 0.00 0.00 99 1012.3
20260510072113 18 106 0.0 0.0 0.00 0.00 0.00 99 1012.2
20260510071608 18 101 0.0 0.0 0.00 0.00 0.00 99 1012.1
20260510071106 18 87 1.6 1.6 0.00 0.00 0.00 99 1011.9
20260510070603 18 85 0.0 0.0 0.00 0.00 0.00 99 1012.0
20260510065557 18 91 0.0 0.0 0.00 0.00 0.00 99 1011.9
20260510065052 18 110 0.0 0.0 0.00 0.00 0.00 99 1012.0
20260510064549 19 108 0.0 0.0 0.00 0.00 0.00 99 1011.9
20260510064046 19 119 0.0 0.0 0.00 0.00 0.00 99 1011.9
20260510063543 19 114 0.0 0.0 0.00 0.00 0.00 99 1012.0
20260510063040 19 104 0.0 0.0 0.00 0.00 0.00 99 1012.0
20260510062536 19 90 0.0 0.0 0.00 0.00 0.00 99 1012.4
20260510062031 19 51 0.0 1.6 0.00 0.00 0.00 99 1012.3
20260510061528 19 93 0.0 0.0 0.00 0.00 0.00 99 1012.1
20260510061025 18 107 0.0 0.0 0.00 0.00 0.00 99 1012.0
20260510060521 19 114 0.0 0.0 0.00 0.00 0.00 99 1011.9
20260510060017 18 110 0.0 0.0 0.00 0.00 0.00 99 1012.0
20260510055513 18 107 0.0 0.0 0.00 0.00 0.00 99 1012.1
20260510055012 18 112 0.0 0.0 0.00 0.00 0.00 99 1012.2
20260510054507 18 109 0.0 0.0 0.00 0.00 0.00 99 1012.5
20260510054002 18 110 0.0 0.0 0.00 0.00 0.00 99 1012.4
20260510053457 18 108 0.0 0.0 0.00 0.00 0.00 99 1012.5
20260510052954 18 103 0.0 0.0 0.00 0.00 0.00 99 1012.6
20260510052450 18 108 0.0 0.0 0.00 0.00 0.00 99 1012.5
20260510051946 18 109 0.0 0.0 0.00 0.00 0.00 99 1012.2
20260510051442 18 110 0.0 0.0 0.00 0.00 0.00 99 1012.3
20260510050938 18 110 0.0 0.0 0.00 0.00 0.00 99 1012.5
20260510050436 19 106 0.0 0.0 0.00 0.00 0.00 99 1012.3
20260510045933 19 100 0.0 0.0 0.00 6.93 6.93 99 1012.4
20260510045430 19 104 0.0 0.0 0.00 6.93 6.93 99 1012.5
20260510044926 19 101 0.0 0.0 0.00 6.93 6.93 99 1012.5
20260510044424 19 84 0.0 1.6 0.00 6.93 6.93 99 1012.6
20260510043920 19 101 0.0 0.0 0.00 6.93 6.93 99 1012.6
20260510043416 19 102 0.0 0.0 0.00 6.93 6.93 99 1012.5
20260510042914 19 102 0.0 0.0 0.00 6.93 6.93 99 1012.7
20260510042410 19 92 0.0 0.0 0.00 6.93 6.93 99 1012.7
20260510041906 19 75 0.0 1.6 0.00 6.93 6.93 99 1012.7
20260510041403 19 74 0.0 1.6 0.00 6.93 6.93 99 1012.3
20260510040901 19 104 0.0 0.0 0.00 6.93 6.93 99 1012.3
20260510040358 19 103 0.0 0.0 0.00 6.93 6.93 99 1012.0
20260510035854 19 112 0.0 1.6 0.00 6.93 6.93 99 1012.1
20260510035349 19 118 1.6 1.6 0.00 6.93 6.93 99 1012.0
20260510034844 19 99 0.0 1.6 0.00 6.93 6.93 99 1011.9
20260510034343 19 75 0.0 0.0 0.00 6.93 6.93 99 1012.1
20260510033839 19 121 1.6 3.2 0.00 6.93 6.93 99 1012.2
20260510033336 19 109 0.0 0.0 0.00 6.93 6.93 99 1012.0
20260510032832 19 121 0.0 0.0 0.00 6.93 6.93 99 1012.2
20260510032329 19 94 0.0 0.0 0.00 6.93 6.93 99 1012.3
20260510031825 19 107 0.0 0.0 0.00 6.93 6.93 99 1012.3
20260510031321 19 107 0.0 0.0 0.00 6.93 6.93 99 1012.5
20260510030821 19 107 0.0 0.0 0.00 6.93 6.93 99 1012.5
20260510030317 19 99 0.0 0.0 0.00 6.93 6.93 99 1012.5
20260510025815 19 101 0.0 0.0 0.00 6.93 6.93 99 1012.5
20260510025312 19 95 0.0 0.0 0.00 6.93 6.93 99 1012.5
20260510024809 19 68 1.6 1.6 0.00 6.93 6.93 99 1012.0
20260510024306 19 97 1.6 1.6 0.00 6.93 6.93 99 1011.6
20260510023802 19 94 1.6 1.6 0.00 6.93 6.93 99 1012.0
20260510023258 19 103 0.0 0.0 0.00 6.93 6.93 99 1011.9
20260510022756 19 96 0.0 0.0 0.00 6.93 6.93 99 1012.0
20260510022255 19 84 0.0 1.6 0.00 6.93 6.93 99 1011.8
20260510021754 19 104 0.0 0.0 0.00 6.93 6.93 99 1011.5
20260510021253 19 99 0.0 0.0 0.13 6.93 6.93 99 1011.8
20260510020748 19 91 0.0 1.6 0.13 6.93 6.93 99 1011.7
20260510020248 19 100 0.0 0.0 0.00 6.91 6.91 99 1011.8
20260510015745 19 110 0.0 0.0 0.00 6.91 6.91 99 1011.9
20260510015241 19 109 0.0 0.0 0.00 6.91 6.91 99 1012.1
20260510014736 19 138 0.0 1.6 0.00 6.91 6.91 99 1012.0
20260510014234 19 121 0.0 0.0 0.00 6.91 6.91 99 1011.9
20260510013729 19 114 0.0 0.0 0.00 6.91 6.91 99 1012.2
20260510013225 19 122 0.0 0.0 0.00 6.91 6.91 99 1012.2
20260510012725 19 108 0.0 0.0 0.00 6.91 6.91 99 1012.2
20260510012221 19 126 1.6 1.6 0.00 6.91 6.91 99 1012.3
20260510011720 19 109 0.0 0.0 0.00 6.91 6.91 99 1012.5
20260510011216 19 106 0.0 0.0 0.00 6.91 6.91 99 1012.5
20260510010713 19 98 0.0 0.0 0.00 6.91 6.91 99 1012.4
20260510010209 19 106 0.0 0.0 0.00 6.91 6.91 99 1012.4
20260510005706 19 128 1.6 1.6 0.00 6.91 6.91 99 1012.5
20260510005202 19 125 0.0 0.0 0.00 6.91 6.91 99 1012.3
20260510004701 19 88 0.0 0.0 0.00 6.91 6.91 99 1011.7
20260510004159 19 96 0.0 0.0 0.00 6.91 6.91 99 1011.7
20260510003656 19 98 0.0 0.0 0.00 6.91 6.91 99 1011.5
20260510003152 19 101 0.0 0.0 0.00 6.91 6.91 99 1011.4
20260510002651 19 112 0.0 0.0 0.00 6.91 6.91 99 1011.1
20260510002149 19 85 0.0 0.0 0.00 6.91 6.91 99 1011.2
20260510001646 19 63 1.6 1.6 0.18 6.91 6.91 99 1010.8
20260510001144 19 104 0.0 0.0 0.18 6.91 6.91 99 1010.8
20260510000644 19 88 0.0 0.0 0.13 6.88 6.88 99 1010.8
20260510000142 19 86 0.0 0.0 0.30 6.88 6.88 99 1010.7
20260509235638 19 104 0.0 0.0 0.18 6.86 6.86 99 1010.7
20260509235135 19 125 0.0 0.0 0.00 6.83 6.83 99 1010.8
20260509234631 19 119 3.2 3.2 0.13 6.83 6.83 99 1010.3
20260509234129 19 86 1.6 1.6 0.13 6.83 6.83 99 1010.5
20260509233626 19 89 1.6 1.6 0.00 6.81 6.81 99 1010.5
20260509233124 19 93 0.0 0.0 0.00 6.81 6.81 99 1010.5
20260509232619 19 99 0.0 0.0 0.00 6.81 6.81 99 1010.4
20260509232117 19 102 1.6 3.2 0.18 6.81 6.81 99 1010.5
20260509231613 19 96 1.6 1.6 0.18 6.81 6.81 99 1010.5
20260509231111 19 108 0.0 0.0 0.13 6.78 6.78 99 1010.7
20260509230608 19 112 0.0 0.0 0.13 6.78 6.78 99 1010.9
20260509230105 19 112 0.0 0.0 0.18 6.76 6.76 99 1010.9
20260509225600 19 102 0.0 0.0 0.18 6.76 6.76 99 1011.0
20260509225056 19 107 0.0 0.0 0.13 6.73 6.73 99 1011.0
20260509224551 19 108 0.0 0.0 0.30 6.73 6.73 99 1010.8
20260509224049 19 102 0.0 0.0 0.18 6.71 6.71 99 1010.9
20260509223546 19 109 0.0 0.0 0.18 6.68 6.68 99 1011.2
20260509223043 19 107 0.0 0.0 0.30 6.68 6.68 99 1011.3
20260509222539 19 110 0.0 0.0 0.43 6.65 6.65 99 1011.1
20260509222036 19 106 0.0 0.0 0.48 6.63 6.63 99 1010.9
20260509221531 19 105 0.0 0.0 0.43 6.60 6.60 99 1010.7
20260509221027 19 92 0.0 0.0 0.43 6.55 6.55 99 1011.0
20260509220523 18 105 0.0 0.0 0.43 6.50 6.50 99 1011.1
20260509220020 19 81 1.6 1.6 0.48 6.48 6.48 99 1011.3
20260509215515 18 80 0.0 0.0 0.30 6.43 6.43 99 1011.1
20260509215013 18 93 0.0 0.0 0.30 6.40 6.40 99 1010.8
20260509214510 19 22 3.2 3.2 0.48 6.38 6.38 99 1010.9
20260509214007 19 112 0.0 0.0 0.48 6.35 6.35 99 1010.5
20260509213502 19 114 0.0 0.0 0.43 6.32 6.32 99 1010.8
20260509212959 19 99 0.0 0.0 0.30 6.27 6.27 99 1011.0
20260509212456 19 119 1.6 1.6 0.30 6.25 6.25 99 1010.8
20260509211953 19 105 0.0 0.0 0.30 6.22 6.22 99 1011.3
20260509211448 19 100 0.0 0.0 0.18 6.20 6.20 99 1010.5
20260509210946 19 109 0.0 0.0 0.13 6.17 6.17 99 1010.7
20260509210443 19 112 0.0 0.0 0.13 6.17 6.17 99 1010.5
20260509205938 19 94 0.0 0.0 0.13 6.17 6.17 99 1010.4
20260509205433 19 98 0.0 0.0 0.18 6.15 6.15 99 1011.0
20260509204929 19 119 0.0 0.0 0.30 6.15 6.15 99 1011.2
20260509204425 19 119 0.0 0.0 0.30 6.12 6.12 99 1010.5
20260509203922 19 95 0.0 0.0 0.18 6.10 6.10 99 1010.9
20260509203418 19 113 0.0 0.0 0.13 6.07 6.07 99 1010.9
20260509202916 19 31 3.2 3.2 0.48 6.07 6.07 99 1010.4
20260509202412 19 126 1.6 1.6 0.66 6.05 6.05 99 1010.3
20260509201907 19 108 0.0 0.0 0.61 5.99 5.99 99 1010.8
20260509201402 19 125 0.0 0.0 1.37 5.94 5.94 99 1010.9
20260509200859 19 115 0.0 1.6 1.80 5.89 5.89 99 1010.6
20260509200354 19 128 0.0 1.6 1.07 5.74 5.74 99 1011.5
20260509195851 19 112 0.0 0.0 0.30 5.59 5.59 99 1011.8
20260509195351 19 107 0.0 0.0 0.43 5.56 5.56 99 1011.3
20260509194851 19 111 0.0 0.0 0.61 5.54 5.54 99 1011.5
20260509194347 19 74 3.2 4.8 0.61 5.51 5.51 99 1010.6
20260509193844 19 86 1.6 1.6 0.66 5.44 5.44 99 1011.4
20260509193344 19 129 1.6 1.6 0.79 5.41 5.41 99 1011.7
20260509192840 19 95 0.0 1.6 0.79 5.36 5.36 99 1011.6
20260509192336 19 104 3.2 3.2 0.89 5.28 5.28 99 1011.7
20260509191831 19 119 0.0 1.6 0.79 5.21 5.21 99 1011.7
20260509191327 19 62 3.2 3.2 0.48 5.13 5.13 99 1012.1
20260509190824 19 110 0.0 0.0 0.18 5.08 5.08 99 1012.1
20260509190321 19 113 0.0 0.0 0.00 5.05 5.05 99 1012.3
20260509185818 19 120 0.0 0.0 0.13 5.05 5.05 99 1011.8
20260509185314 19 109 0.0 0.0 0.13 5.05 5.05 99 1011.6
20260509184812 19 99 0.0 1.6 0.00 5.03 5.03 99 1011.6
20260509184309 19 79 0.0 0.0 0.00 5.03 5.03 99 1011.9
20260509183806 19 74 0.0 0.0 0.18 5.03 5.03 99 1011.7
20260509183301 19 94 0.0 0.0 0.30 5.03 5.03 99 1012.1
20260509182756 19 99 0.0 0.0 0.13 5.00 5.00 99 1012.0
20260509182254 19 106 0.0 0.0 0.00 4.98 4.98 99 1012.0
20260509181751 18 124 0.0 0.0 0.18 4.98 4.98 99 1012.0
20260509181249 18 101 0.0 0.0 0.18 4.98 4.98 99 1011.9
20260509180746 18 107 0.0 0.0 0.18 4.98 4.98 99 1011.8
20260509180242 18 78 0.0 0.0 0.00 4.95 4.95 99 1011.8
20260509175738 18 102 0.0 0.0 0.00 4.95 4.95 99 1011.8
20260509175235 18 94 1.6 1.6 0.13 4.95 4.95 99 1011.9
20260509174731 18 108 1.6 1.6 0.13 4.95 4.95 99 1012.1
20260509174226 18 106 0.0 0.0 0.00 4.93 4.93 99 1012.1
20260509173723 18 115 0.0 0.0 0.00 4.93 4.93 99 1011.8
20260509173219 18 107 0.0 0.0 0.00 4.93 4.93 99 1011.6
20260509172715 18 109 0.0 0.0 0.00 4.93 4.93 99 1011.6
20260509172211 18 102 0.0 0.0 0.00 4.93 4.93 99 1011.5
20260509171707 18 91 0.0 0.0 0.00 4.93 4.93 99 1011.8
20260509171203 18 87 3.2 4.8 0.00 4.93 4.93 99 1011.8
20260509170700 18 116 0.0 0.0 0.00 4.93 4.93 99 1012.0
20260509170156 18 122 0.0 0.0 0.00 4.93 4.93 99 1011.9
20260509165654 18 109 0.0 0.0 0.00 4.93 4.93 99 1011.8
20260509165150 18 67 0.0 0.0 0.00 4.93 4.93 99 1011.9
20260509164646 18 125 0.0 0.0 0.00 4.93 4.93 99 1012.0
20260509164142 18 96 0.0 0.0 0.00 4.93 4.93 99 1011.8
20260509163640 18 90 1.6 3.2 0.00 4.93 4.93 99 1012.1
20260509163135 18 109 0.0 1.6 0.00 4.93 4.93 99 1012.1
20260509162633 18 115 0.0 0.0 0.18 4.93 4.93 99 1012.0
20260509162129 18 113 0.0 0.0 0.18 4.93 4.93 99 1012.0
20260509161625 18 109 0.0 0.0 0.00 4.90 4.90 99 1012.1
20260509161120 18 90 1.6 1.6 0.00 4.90 4.90 99 1012.2
20260509160616 18 140 1.6 3.2 0.00 4.90 4.90 99 1012.3
20260509160112 18 99 3.2 3.2 0.00 4.90 4.90 99 1012.0
20260509155608 18 97 0.0 1.6 0.00 4.90 4.90 99 1011.8
20260509155105 18 122 3.2 3.2 0.00 4.90 4.90 99 1012.3
20260509154600 18 93 0.0 0.0 0.00 4.90 4.90 99 1012.2
20260509154058 18 81 0.0 0.0 0.00 4.90 4.90 99 1012.4
20260509153555 18 99 3.2 6.4 0.00 4.90 4.90 99 1012.1
20260509153052 18 75 3.2 4.8 0.13 4.90 4.90 99 1012.0
20260509152548 18 91 4.8 4.8 0.30 4.90 4.90 99 1011.8
20260509152045 18 101 6.4 6.4 0.30 4.88 4.88 99 1011.8
20260509151541 18 117 0.0 1.6 0.30 4.88 4.88 99 1011.9
20260509151039 18 110 0.0 1.6 0.30 4.85 4.85 99 1012.0
20260509150536 18 110 0.0 0.0 0.48 4.83 4.83 99 1011.6
20260509150035 18 106 0.0 0.0 0.79 4.80 4.80 99 1011.2
20260509145530 18 116 1.6 3.2 0.97 4.78 4.78 99 1011.5
20260509145025 18 147 1.6 1.6 0.43 4.67 4.67 99 1011.6
20260509144522 18 113 1.6 1.6 0.43 4.62 4.62 99 1011.5
20260509144020 18 116 0.0 0.0 0.61 4.60 4.60 99 1011.2
20260509143517 18 113 0.0 0.0 0.43 4.57 4.57 99 1011.3
20260509143015 18 110 0.0 0.0 0.48 4.50 4.50 99 1011.4